This demonstration page uses our WeatherBlox Daily Observations layout. Learn more.

Left ArrowRight Arrow

41.55636, -103.73856

Hourly Observations for January 14, 2021

Temp ( °F °C ) Dew Point ( °F °C ) Humidity (%) Winds ( mph kmh ) Pressure ( in mb ) Visibility ( mi km ) Precip ( " mm )
12:58 am 00:58 Clear 28 -2.4 21 -5.9 77 77 NW 18 30 30 1016 10 16.0934 0 0
1:58 am 01:58 Partly Cloudy 28 -2.4 18 -7.6 68 68 NW 20 31 30.04 1017 10 16.0934 0 0
2:58 am 02:58 Clear 25 -3.9 18 -7.9 74 74 NW 18 30 30.27 1025 10 16.0934 0 0
3:58 am 03:58 Clear 26 -3.5 17 -8.3 70 70 NW 18 30 30.28 1025 10 16.0934 0 0
4:58 am 04:58 Clear 24 -4.4 15 -9.2 70 70 WNW 18 30 30.32 1027 10 16.0934 0 0
5:58 am 05:58 Clear 24 -4.4 13 -10.3 64 64 NW 20 31 30.35 1028 10 16.0934 0 0
6:58 am 06:58 Clear 23 -4.9 13 -10.6 65 65 WNW 15 24 30.19 1022 10 16.0934 0 0
7:58 am 07:58 Sunny 22 -5.4 13 -10.6 67 67 NW 16 26 30.19 1022 10 16.0934 0 0
8:58 am 08:58 Sunny 25 -3.9 15 -9.3 66 66 WNW 14 22 30.25 1024 10 16.0934 0 0
9:56 am 09:56 Mostly Cloudy 28 -2.5 16 -8.9 62 62 WNW 10 17 30.23 1024 10 16.0934 0 0
11:56 am 11:56 Windy with Snow Likely 27 -2.8 20 -6.8 74 74 NNW 35 56 30.21 1023 4 6.43736 0 0
12:56 pm 12:56 Windy with Snow Showers Likely 24 -4.3 21 -6.3 86 86 N 29 46 30.21 1023 3 4.82802 0 0
1:56 pm 13:56 Partly Cloudy 27 -2.8 19 -7.5 70 70 NW 21 33 30.21 1023 10 16.0934 0 0
2:58 pm 14:58 Mostly Cloudy 29 -1.6 16 -9 57 57 NW 29 46 30.22 1023 10 16.0934 0 0
3:58 pm 15:58 Mostly Cloudy 27 -2.7 18 -7.8 68 68 NW 21 33 30.24 1024 10 16.0934 0 0
4:58 pm 16:58 Clear 24 -4.3 17 -8.4 73 73 WNW 20 31 30.28 1025 10 16.0934 0 0
5:58 pm 17:58 Clear 23 -4.9 15 -9.7 69 69 WNW 22 35 30.29 1026 10 16.0934 0 0
6:58 pm 18:58 Clear 23 -5.1 13 -10.4 67 67 NW 23 37 30.29 1026 10 16.0934 0 0
7:58 pm 19:58 Clear 22 -5.5 12 -11.3 64 64 NW 22 35 30.3 1026 10 16.0934 0 0
8:58 pm 20:58 Clear 23 -5 9 -12.6 56 56 NW 24 39 30.3 1026 10 16.0934 0 0
9:58 pm 21:58 Clear 25 -3.8 7 -14.1 45 45 NNW 36 57 30.35 1028 10 16.0934 0 0
10:58 pm 22:58 Clear 24 -4.2 4 -15.3 42 42 NNW 33 54 30.37 1028 10 16.0934 0 0
11:58 pm 23:58 Clear 24 -4.4 3 -15.9 41 41 NNW 33 54 30.37 1028 10 16.0934 0 0

Powered by AerisWeather